Date String (YYYY-MM-DD hh:mm:ss) UTC,Instrument flags,absolute air pressure of the measurement (hPa),sample flow rate (lpm),inlet stack bypass flow (lpm),air temperature of the measurement (°C),ambient temperature measured by the external sensor (°C),aerosol sample conditioner tube jacket temperature (°C),OPC LED temperature (°C),internal box temperature (°C),relative humidity of the measurement (%),span deviation,mass concentration of particles derived from Lorenz-Mie calculation of OPC scattering (μg/m³),mass concentration of particles derived from Lorenz-Mie calculation of OPC scattering (μg/m³),mass concentration of particles derived from Lorenz-Mie calculation of OPC scattering (μg/m³)
DateTimeUTC,F1_M11,P_M11,Q1_M11,Q2_M11,T1_M11,T2_M11,T3_M11,T4_M11,T5_M11,U1_M11,ZSPAN_M11,X0_M11,X2_M11,X1_M11
2023-12-15 00:00:00,SystemResetWarning,0832.1,5.01,000.00,019.6,018.8,000.0,027.8,020.8,22.4,0000.9,0026.35,0018.29,0017.33
2023-12-15 00:01:00,SystemResetWarning,0832.1,5.00,000.00,019.6,018.8,000.0,027.8,020.8,22.4,0000.9,0027.44,0018.32,0017.36
2023-12-15 00:02:00,SystemResetWarning,0832.2,5.00,000.00,019.6,018.8,000.0,027.8,020.8,22.5,0000.8,0027.62,0018.33,0017.35
2023-12-15 00:03:00,SystemResetWarning,0832.1,5.00,000.00,019.6,018.7,000.0,027.8,020.8,22.5,0000.8,0027.67,0018.32,0017.36
2023-12-15 00:04:00,SystemResetWarning,0832.2,5.00,000.00,019.6,018.8,000.0,027.8,020.9,22.5,0001.0,0027.68,0018.29,0017.35
2023-12-15 00:05:00,SystemResetWarning,0832.2,5.01,000.00,019.6,018.8,000.0,027.8,020.9,22.5,0001.0,0027.74,0018.33,0017.36
2023-12-15 00:06:00,SystemResetWarning,0832.2,5.00,000.00,019.6,018.8,000.0,027.8,020.8,22.5,0001.1,0027.68,0018.39,0017.41
2023-12-15 00:07:00,SystemResetWarning,0832.1,5.00,000.00,019.6,018.8,000.0,027.8,020.9,22.5,0001.2,0027.50,0018.42,0017.42
2023-12-15 00:08:00,SystemResetWarning,0832.1,4.99,000.00,019.6,018.8,000.0,027.8,020.9,22.5,0001.3,0027.33,0018.40,0017.42
2023-12-15 00:09:00,SystemResetWarning,0832.1,4.99,000.00,019.6,018.8,000.0,027.8,020.9,22.5,0001.4,0026.79,0018.43,0017.43
2023-12-15 00:10:00,SystemResetWarning,0832.1,5.00,000.00,019.6,018.8,000.0,027.8,020.9,22.5,0001.5,0026.91,0018.47,0017.49
2023-12-15 00:11:00,SystemResetWarning,0832.1,5.00,000.00,019.6,018.8,000.0,027.8,020.9,22.5,0001.4,0027.42,0018.48,0017.55
2023-12-15 00:12:00,SystemResetWarning,0832.1,5.00,000.00,019.6,018.8,000.0,027.9,020.9,22.5,0001.4,0026.49,0018.52,0017.60
2023-12-15 00:13:00,SystemResetWarning,0832.1,5.00,000.00,019.6,018.8,000.0,027.9,020.9,22.5,0001.5,0026.29,0018.54,0017.62
2023-12-15 00:14:00,SystemResetWarning,0832.1,5.01,000.00,019.6,018.8,000.0,027.9,020.9,22.5,0001.4,0026.31,0018.59,0017.64
2023-12-15 00:15:00,SystemResetWarning,0832.1,5.00,000.00,019.6,018.8,000.0,027.9,020.9,22.5,0001.1,0026.28,0018.64,0017.66
2023-12-15 00:16:00,SystemResetWarning,0832.1,5.00,000.00,019.6,018.8,000.0,027.9,020.9,22.5,0000.9,0026.27,0018.63,0017.66
2023-12-15 00:17:00,SystemResetWarning,0832.0,5.00,000.00,019.6,018.8,000.0,027.9,020.9,22.5,0000.9,0026.78,0018.58,0017.63
2023-12-15 00:18:00,SystemResetWarning,0832.1,5.00,000.00,019.6,018.8,000.0,027.9,020.9,22.5,0000.9,0026.90,0018.54,0017.62
2023-12-15 00:19:00,SystemResetWarning,0832.1,5.00,000.00,019.6,018.8,000.0,027.9,020.9,22.5,0001.0,0026.84,0018.54,0017.66
2023-12-15 00:20:00,SystemResetWarning,0832.1,5.00,000.00,019.6,018.8,000.0,027.9,020.9,22.5,0001.1,0026.73,0018.50,0017.66
2023-12-15 00:21:00,SystemResetWarning,0832.1,5.00,000.00,019.6,018.8,000.0,027.9,020.9,22.4,0001.1,0026.67,0018.47,0017.64
2023-12-15 00:22:00,SystemResetWarning,0832.0,5.01,000.00,019.6,018.8,000.0,027.9,020.9,22.4,0001.1,0026.08,0018.43,0017.60
2023-12-15 00:23:00,SystemResetWarning,0832.1,5.00,000.00,019.6,018.8,000.0,027.9,020.9,22.4,0001.0,0025.68,0018.36,0017.55
2023-12-15 00:24:00,SystemResetWarning,0832.1,5.00,000.00,019.6,018.8,000.0,027.9,020.9,22.3,0000.9,0025.60,0018.37,0017.56
2023-12-15 00:25:00,SystemResetWarning,0832.1,5.00,000.00,019.6,018.8,000.0,027.9,020.9,22.4,0000.9,0025.66,0018.41,0017.60
2023-12-15 00:26:00,SystemResetWarning,0832.1,5.00,000.00,019.6,018.8,000.0,027.9,020.9,22.4,0001.2,0025.65,0018.42,0017.63
2023-12-15 00:27:00,SystemResetWarning,0832.1,4.99,000.00,019.6,018.8,000.0,027.9,020.9,22.3,0001.3,0025.75,0018.45,0017.63
2023-12-15 00:28:00,SystemResetWarning,0832.1,5.00,000.00,019.6,018.8,000.0,027.9,020.9,22.4,0001.2,0025.18,0018.46,0017.64
2023-12-15 00:29:00,SystemResetWarning,0832.2,5.00,000.00,019.6,018.8,000.0,027.9,020.9,22.4,0001.1,0024.72,0018.47,0017.66
2023-12-15 00:30:00,SystemResetWarning,0832.2,5.00,000.00,019.6,018.8,000.0,027.9,020.9,22.4,0000.9,0024.71,0018.46,0017.64
2023-12-15 00:31:00,SystemResetWarning,0832.2,5.00,000.00,019.6,018.8,000.0,027.9,020.9,22.3,0000.9,0025.02,0018.48,0017.65
2023-12-15 00:32:00,SystemResetWarning,0832.2,5.01,000.00,019.6,018.8,000.0,027.9,020.9,22.3,0000.8,0025.07,0018.49,0017.66
2023-12-15 00:33:00,SystemResetWarning,0832.1,5.00,000.00,019.6,018.8,000.0,027.9,020.9,22.3,0000.7,0025.24,0018.53,0017.69
2023-12-15 00:34:00,SystemResetWarning,0832.2,5.00,000.00,019.6,018.8,000.0,027.9,020.9,22.3,0000.7,0025.48,0018.59,0017.73
2023-12-15 00:35:00,SystemResetWarning,0832.2,5.00,000.00,019.6,018.8,000.0,027.9,020.9,22.3,0000.8,0025.57,0018.58,0017.71
2023-12-15 00:36:00,SystemResetWarning,0832.2,5.00,000.00,019.6,018.8,000.0,027.9,020.9,22.3,0000.7,0025.64,0018.60,0017.73
2023-12-15 00:37:00,SystemResetWarning,0832.1,5.00,000.00,019.6,018.8,000.0,027.9,020.9,22.3,0000.5,0025.57,0018.58,0017.73
2023-12-15 00:38:00,SystemResetWarning,0832.1,5.00,000.00,019.6,018.8,000.0,027.9,020.9,22.3,0000.6,0025.47,0018.60,0017.79
2023-12-15 00:39:00,SystemResetWarning,0832.1,5.00,000.00,019.6,018.8,000.0,027.9,020.9,22.4,0000.6,0025.48,0018.61,0017.82
2023-12-15 00:40:00,SystemResetWarning,0832.1,5.00,000.00,019.6,018.8,000.0,027.9,020.8,22.4,0000.7,0025.58,0018.63,0017.83
2023-12-15 00:41:00,SystemResetWarning,0832.0,5.00,000.00,019.6,018.7,000.0,027.9,020.8,22.4,0000.9,0025.69,0018.66,0017.86
2023-12-15 00:42:00,SystemResetWarning,0832.0,5.00,000.00,019.6,018.7,000.0,027.9,020.8,22.5,0000.8,0025.26,0018.64,0017.88
2023-12-15 00:43:00,SystemResetWarning,0832.1,5.00,000.00,019.6,018.7,000.0,027.9,020.8,22.5,0000.6,0025.27,0018.66,0017.87
2023-12-15 00:44:00,SystemResetWarning,0832.0,5.00,000.00,019.6,018.7,000.0,027.9,020.8,22.6,0000.5,0025.38,0018.69,0017.87
2023-12-15 00:45:00,SystemResetWarning,0832.0,4.99,000.00,019.6,018.7,000.0,027.9,020.8,22.6,0000.5,0025.59,0018.68,0017.85
2023-12-15 00:46:00,SystemResetWarning,0832.0,4.99,000.00,019.6,018.7,000.0,027.9,020.8,22.7,0000.5,0025.59,0018.67,0017.83
2023-12-15 00:47:00,SystemResetWarning,0832.1,5.00,000.00,019.5,018.7,000.0,027.9,020.8,22.7,0000.5,0025.56,0018.68,0017.82
2023-12-15 00:48:00,SystemResetWarning,0832.1,5.00,000.00,019.5,018.7,000.0,027.9,020.8,22.7,0000.5,0025.61,0018.68,0017.81
2023-12-15 00:49:00,SystemResetWarning,0832.1,5.00,000.00,019.5,018.7,000.0,027.9,020.8,22.8,0000.5,0025.65,0018.67,0017.78
2023-12-15 00:50:00,SystemResetWarning,0832.1,5.00,000.00,019.5,018.7,000.0,027.9,020.7,22.8,0000.5,0025.62,0018.64,0017.75
2023-12-15 00:51:00,SystemResetWarning,0832.1,5.00,000.00,019.5,018.6,000.0,027.9,020.7,22.8,0000.3,0025.56,0018.59,0017.72
2023-12-15 00:52:00,SystemResetWarning,0832.1,5.00,000.00,019.5,018.6,000.0,027.9,020.7,22.8,0000.3,0025.50,0018.59,0017.71
2023-12-15 00:53:00,SystemResetWarning,0832.1,5.00,000.00,019.5,018.6,000.0,027.9,020.7,22.9,0000.4,0025.59,0018.62,0017.72
2023-12-15 00:54:00,SystemResetWarning,0832.0,5.00,000.00,019.5,018.6,000.0,027.9,020.7,22.9,0000.6,0025.64,0018.61,0017.74
2023-12-15 00:55:00,SystemResetWarning,0832.0,5.01,000.00,019.5,018.6,000.0,027.9,020.7,22.9,0000.6,0025.52,0018.61,0017.76
2023-12-15 00:56:00,SystemResetWarning,0832.0,5.00,000.00,019.5,018.6,000.0,027.9,020.7,22.9,0000.6,0025.13,0018.59,0017.75
2023-12-15 00:57:00,SystemResetWarning,0832.0,5.00,000.00,019.5,018.6,000.0,027.8,020.7,22.9,0000.5,0025.17,0018.61,0017.78
2023-12-15 00:58:00,SystemResetWarning,0832.0,5.00,000.00,019.5,018.6,000.0,027.8,020.7,22.9,0000.6,0025.62,0018.57,0017.77
2023-12-15 00:59:00,SystemResetWarning,0832.0,5.00,000.00,019.5,018.6,000.0,027.8,020.7,22.9,0000.6,0026.26,0018.58,0017.77
